Weather History for Pine Ridge, SD

Change the Weather History Date:

Monday, January 7, 2013

  Actual Average Record
Temperature  
Mean Temperature 25 °F 23 °F  
Max Temperature 40 °F 37 °F 62 °F (2002)
Min Temperature 10 °F 9 °F -2 °F (2005)
Degree Days  
Heating Degree Days 40 42  
Month to date heating degree days 324 295  
Since 1 July heating degree days 3127 3285  
Cooling Degree Days 0 0  
Month to date cooling degree days 0 0  
Year to date cooling degree days 0 0  
Moisture  
Dew Point 18 °F    
Average Humidity 70    
Maximum Humidity 92    
Minimum Humidity 48    
Precipitation  
Precipitation 0.00 in 0.01 in 0.00 in (2014)
Month to date precipitation 0.10 0.06  
Year to date precipitation 0.10 0.06  
Sea Level Pressure  
Sea Level Pressure 29.97 in    
Wind  
Wind Speed 6 mph (South)    
Max Wind Speed 23 mph    
Max Gust Speed 28 mph    
Visibility 10 miles    
Events      
T = Trace of Precipitation, MM = Missing Value Source: NWS Daily Summary

Daily Weather History Graph

Daily Weather History Graph

Search for Another Location

Airport:

Trip Planner

Search our weather history database for the weather conditions in past years. The results will help you decide how hot, cold, wet, or windy it might be!

Date:

Astronomy

Jan. 07, 2013 Rise Set
Actual Time 7:21 AM MST 4:32 PM MST
Civil Twilight 6:49 AM MST 5:04 PM MST
Nautical Twilight 6:13 AM MST 5:39 PM MST
Astronomical Twilight 5:39 AM MST 6:13 PM MST
Moon 2:45 AM MST (1/7) 12:46 PM MST (1/7)
Length of Visible Light 10h 14m
Length of Day
9h 11m
Waning Crescent, 22% of the Moon is Illuminated
Jan 7
Waning Crescent
Jan 11
New
Jan 18
First Quarter
Jan 26
Full
Feb 3
Last Quarter

Hourly Weather History & Observations

Time (MST) Temp. Windchill Dew Point Humidity Pressure Visibility Wind Dir Wind Speed Gust Speed Precip Events Conditions
1:52 AM 25.0 °F 20.7 °F 16.0 °F 69% 29.96 in 10.0 mi SSW 3.5 mph - N/A   Clear
2:52 AM 26.1 °F 20.5 °F 16.0 °F 66% 29.97 in 10.0 mi West 4.6 mph - N/A   Clear
3:52 AM 21.9 °F - 15.1 °F 75% 29.99 in 10.0 mi Calm Calm - N/A   Clear
4:52 AM 19.9 °F - 14.0 °F 78% 30.01 in 10.0 mi Calm Calm - N/A   Clear
5:52 AM 15.1 °F - 10.0 °F 80% 30.05 in 10.0 mi Calm Calm - N/A   Clear
6:52 AM 10.9 °F - 7.0 °F 84% 30.09 in 10.0 mi Calm Calm - N/A   Clear
7:52 AM 10.9 °F - 8.1 °F 88% 30.11 in 10.0 mi Calm Calm - N/A   Clear
8:52 AM 14.0 °F 8.2 °F 9.0 °F 80% 30.13 in 9.0 mi NE 3.5 mph - N/A   Clear
9:52 AM 23.0 °F - 14.0 °F 68% 30.12 in 10.0 mi Calm Calm - N/A   Clear
10:52 AM 30.9 °F - 18.0 °F 59% 30.07 in 10.0 mi Calm Calm - N/A   Clear
11:52 AM 36.0 °F - 21.0 °F 55% 30.02 in 10.0 mi Calm Calm - N/A   Clear
12:52 PM 39.9 °F - 21.9 °F 49% 29.95 in 10.0 mi Calm Calm - N/A   Clear
1:52 PM 39.9 °F 37.8 °F 23.0 °F 51% 29.96 in 10.0 mi South 3.5 mph - N/A   Clear
2:52 PM 37.9 °F 32.7 °F 24.1 °F 57% 29.95 in 10.0 mi South 6.9 mph - N/A   Clear
3:52 PM 36.0 °F 32.1 °F 21.9 °F 57% 29.96 in 10.0 mi NE 4.6 mph - N/A   Clear
4:52 PM 35.1 °F - 19.9 °F 54% 29.95 in 10.0 mi Calm Calm - N/A   Clear
5:52 PM 34.0 °F 23.8 °F 21.0 °F 59% 29.94 in 10.0 mi South 16.1 mph - N/A   Clear
6:52 PM 32.0 °F 22.1 °F 21.0 °F 64% 29.94 in 10.0 mi South 13.8 mph - N/A   Clear
7:52 PM 32.0 °F 19.8 °F 21.0 °F 64% 29.91 in 10.0 mi South 20.7 mph - N/A   Clear
8:52 PM 30.9 °F 19.1 °F 21.0 °F 67% 29.89 in 10.0 mi South 18.4 mph 24.2 mph N/A   Clear
9:52 PM 28.9 °F 19.2 °F 19.9 °F 69% 29.86 in 10.0 mi SSW 11.5 mph - N/A   Clear
10:52 PM 30.0 °F 18.7 °F 21.0 °F 69% 29.81 in 10.0 mi South 16.1 mph - N/A   Clear
11:52 PM 30.9 °F 19.1 °F 19.9 °F 64% 29.76 in 10.0 mi SSW 18.4 mph - N/A   Clear